Home   Weather   Arequipa   Past weeks

Flag for Peru Past Weather in Arequipa, Arequipa, Peru — Yesterday and Last 2 Weeks

Now
52 °F

Fog.


Feels Like: 49 °F
Forecast: 53 / 59 °F
Wind: 7 mph from Southwest

Location: Arequipa Airport

Current Time: Jan 16, 2017 at 2:43:00 pm

Latest Report: Jan 16, 2017 at 2:00 pm


Visibility: 2 mi

Pressure: 30.27 "Hg (22.83 "Hg at 2345m altitude)

Humidity: 100%

Dew Point: 52 °F

Location of ArequipaLocation

Past Weather in Arequipa — Graph

°F

Arequipa Temperature Yesterday

Maximum temperature yesterday: 57 °F (at 12:00 pm)
Minimum temperature yesterday: 52 °F (at 3:25 am)
Average temperature yesterday: 53 °F

High & Low Weather Summary for the Past Weeks

 TemperatureHumidityPressure
High75 °F (Jan 4, 11:00 am)100% (Jan 5, 8:00 pm)30.39 "Hg (Jan 5, 8:00 pm)
Low48 °F (Jan 10, 7:30 am)29% (Jan 8, 10:00 pm)30.15 "Hg (Jan 4, 4:00 pm)
Average57 °F81%30.28 "Hg
* Reported Jan 1 1:00 pm — Jan 16 1:00 pm, Arequipa, Weather by CustomWeather, © 2017

Note: Actual official high and low records may vary slightly from our data, if they occured in-between our weather recording intervals... More about our weather records

Advertising

Arequipa Weather History for the Previous 24 Hours

Scroll right to see more
 ConditionsComfort  
Time TempWeatherWind HumidityBarometerVisibility
1:00 pm
Mon, Jan 16
54 °FDrizzle. Broken clouds.7 mph94%30.30 "Hg3 mi
12:00 pm54 °FBroken clouds.7 mph94%30.30 "HgN/A
11:13 am54 °FBroken clouds.8 mph94%30.30 "HgN/A
11:00 am55 °FBroken clouds.8 mph88%30.33 "HgN/A
10:00 am54 °FBroken clouds.6 mph100%30.33 "HgN/A
9:00 am52 °FBroken clouds.7 mph100%30.33 "Hg6 mi
8:18 am52 °FFog.5 mph100%30.33 "Hg1 mi
8:00 am50 °FFog.3 mph100%30.33 "Hg0 mi
7:00 am52 °FFog.6 mph94%30.30 "Hg1 mi
6:32 am52 °FFog.3 mph100%30.30 "Hg1 mi
6:00 am50 °FDrizzle. Fog.2 mph100%30.30 "Hg1 mi
5:00 am52 °FDrizzle. Fog.2 mph94%30.27 "Hg2 mi
4:00 am50 °FDrizzle. Fog.3 mph100%30.24 "Hg2 mi
3:00 am50 °FFog.3 mph100%30.24 "Hg2 mi
2:00 am52 °FFog.5 mph94%30.24 "Hg1 mi
1:00 am50 °FFog.6 mph100%30.27 "Hg1 mi
12:00 am52 °FLight rain. Fog.7 mph94%30.30 "Hg1 mi
11:00 pm
Sun, Jan 15
52 °FDrizzle. Fog.8 mph94%30.30 "Hg1 mi
10:00 pm52 °FPartly cloudy.9 mph100%30.30 "Hg2 mi
9:35 pm52 °FLight rain. Fog.9 mph100%30.30 "Hg2 mi
9:00 pm52 °FDrizzle. Fog.8 mph100%30.27 "Hg2 mi
8:00 pm52 °FPartly cloudy.9 mph100%30.27 "Hg1 mi
7:00 pm52 °FLight rain. Fog.9 mph100%30.24 "Hg1 mi
6:00 pm54 °FDrizzle. Fog.No wind94%30.24 "Hg2 mi
4:00 pm54 °FDrizzle. Broken clouds.5 mph94%30.21 "Hg4 mi
3:15 pm54 °FFog.7 mph88%30.21 "Hg2 mi
3:00 pm55 °FBroken clouds.5 mph82%30.24 "Hg4 mi
2:00 pm55 °FBroken clouds.7 mph82%30.24 "Hg6 mi
Weather by CustomWeather, © 2017

See weather overviewHow to use our weather pages